Content
SEND FEEDBACK

Daily
Averages
Monthly
Summary
United States of America

CAMP QUEZON, GUAM


Home > North America > United States > Guam
Elevation: 269 feet     Latitude: 13 28N     Longitude: 144 48E

WEATHER
 
SELECT A DAY
Number of Records: 209,308;   Date Range: 1/1/95 - 9/18/14
 
SHARE

PRINT THIS DATA

[ ← Previous Day ]
WEATHER ALMANAC - JANUARY 7, 2013
[ Next Day → ]
[ °C ]   °F
Weather ElementAverageHighLow
Temperature80.2 °F84.9 °F (1:54 pm)75.2 °F (10:41 pm)
Dewpoint72.3 °F75.2 °F (10:36 pm)68 °F (6:54 am)
Humidity77.1 %100 % (10:41 pm)63 % (9:54 am)
Barometer29.84 in29.89 in (8:54 am)29.79 in (2:54 pm)
Wind Speed15.3 mph21.9 mph (10:54 am)
Wind Gust34.5 mph (10:54 am)
Weather ElementAverage
Visibility9.1 mi
Wind DirectionENE (64.8 °)

Weather ElementTotal
Precipitation0.24 in
Cooling Degree Days15.1 (Base 65)
Growing Degree Days30.1 (Base 50)
Averaged from 25 records on January 7, 2013
WEATHER CONDITIONS BREAKOUT
WIND DIRECTION BREAKOUT
WEATHER BY HOUR - JANUARY 7, 2013
[ °C ]   °F
Local TimeTemperatureDewpointHumidityBarometerVisibilityWind DirectionWind SpeedGust SpeedPrecipitationEventsConditions
1:54 AM79.0 °F72.0 °F79 %29.82 in10.0 miENE (70°)15.0 mphClear
2:54 AM79.0 °F72.0 °F79 %29.81 in10.0 miENE (70°)17.3 mph24.2 mphMostly Cloudy
3:54 AM78.1 °F73.0 °F84 %29.81 in10.0 miENE (70°)15.0 mph20.7 mph0.00 inMostly Cloudy
4:54 AM79.0 °F70.0 °F74 %29.83 in10.0 miEast (90°)13.8 mph0.00 inPartly Cloudy
5:54 AM78.1 °F71.1 °F79 %29.83 in10.0 miENE (70°)13.8 mph0.00 inScattered Clouds
6:54 AM78.1 °F68.0 °F71 %29.85 in10.0 miEast (80°)13.8 mphClear
7:54 AM80.1 °F69.1 °F69 %29.88 in10.0 miENE (70°)12.7 mphClear
8:54 AM82.0 °F71.1 °F69 %29.89 in10.0 miNE (50°)17.3 mphPartly Cloudy
9:54 AM82.9 °F69.1 °F63 %29.89 in10.0 miENE (70°)18.4 mphMostly Cloudy
10:54 AM81.0 °F73.9 °F79 %29.89 in8.0 miEast (80°)21.9 mph34.5 mph0.00 inRainLight Rain
11:54 AM84.0 °F72.0 °F67 %29.86 in10.0 miENE (70°)18.4 mph0.00 inPartly Cloudy
12:54 PM79.0 °F73.9 °F84 %29.84 in5.0 miENE (70°)15.0 mph25.3 mph0.00 inRainLight Rain
1:54 PM84.9 °F73.0 °F67 %29.81 in10.0 miEast (80°)15.0 mph24.2 mph0.00 inScattered Clouds
2:54 PM84.9 °F72.0 °F65 %29.79 in10.0 miNE (50°)18.4 mph25.3 mphMostly Cloudy
3:54 PM84.9 °F73.0 °F67 %29.79 in10.0 miENE (60°)17.3 mph24.2 mphPartly Cloudy
4:54 PM82.9 °F73.0 °F72 %29.81 in10.0 miENE (60°)15.0 mph21.9 mphClear
5:54 PM81.0 °F73.0 °F77 %29.82 in10.0 miENE (60°)13.8 mph19.6 mphClear
6:54 PM81.0 °F72.0 °F74 %29.83 in10.0 miENE (60°)12.7 mph20.7 mphClear
7:54 PM80.1 °F72.0 °F76 %29.84 in10.0 miENE (60°)9.2 mphPartly Cloudy
8:54 PM79.0 °F72.0 °F79 %29.85 in10.0 miNE (50°)12.7 mphPartly Cloudy
9:54 PM80.1 °F73.0 °F79 %29.86 in10.0 miNE (40°)12.7 mphOvercast
10:36 PM77.0 °F75.2 °F94 %29.89 in2.5 miENE (70°)13.8 mph0.06 inRainHeavy Rain
10:41 PM75.2 °F75.2 °F100 %29.89 in3.0 miENE (70°)15.0 mph0.09 inRainHeavy Rain
10:54 PM77.0 °F73.9 °F90 %29.87 in10.0 miENE (60°)19.6 mph26.5 mph0.09 inOvercast
11:54 PM77.0 °F73.9 °F90 %29.84 in10.0 miNE (40°)13.8 mph0.00 inRainLight Rain
Hourly data recorded from PGUM, located miles away from Camp Quezon, Guam







STORIES FROM OUR PARTNERS